This is the latest recevied weather packets stored in our database for station/object SQ7IQO. If no packets are shown the sender has not sent any weather packets the latest 10 day(s).
| Time | Temp. | Humidity | Pressure | Rain* | Wind** | Luminosity | Snow |
|---|---|---|---|---|---|---|---|
| 1788080983 | 24.44° C | 52% | 1016.9 hPa | 0 mm | 0.89 m/s, ° | - | - |
| 1788080923 | 24.44° C | 51% | 1016.9 hPa | 0 mm | 0.45 m/s, ° | - | - |
| 1788080863 | 24.44° C | 52% | 1016.8 hPa | 0 mm | 0.45 m/s, ° | - | - |
| 1788080803 | 24.44° C | 52% | 1016.9 hPa | 0 mm | 0.45 m/s, ° | - | - |
| 1788080743 | 25° C | 53% | 1016.9 hPa | 0 mm | 0.89 m/s, ° | - | - |
| 1788080683 | 25° C | 52% | 1016.9 hPa | 0 mm | 0.45 m/s, ° | - | - |
| 1788080623 | 25° C | 52% | 1016.9 hPa | 0 mm | 0 m/s | - | - |
| 1788080563 | 25° C | 52% | 1016.9 hPa | 0 mm | 0 m/s | - | - |
| 1788080503 | 25° C | 52% | 1016.9 hPa | 0 mm | 0.45 m/s, ° | - | - |
| 1788080443 | 25° C | 51% | 1016.9 hPa | 0 mm | 0 m/s | - | - |
| 1788080383 | 25° C | 53% | 1027.6 hPa | 0 mm | 0 m/s | - | - |
| 1788080323 | 25.56° C | 54% | 1016.9 hPa | 0 mm | 0.45 m/s, ° | - | - |
| 1788080263 | 25° C | 55% | 1016.9 hPa | 0 mm | 0 m/s | - | - |
| 1788080203 | 25° C | 54% | 1016.9 hPa | 0 mm | 0 m/s | - | - |
| 1788080143 | 25° C | 54% | 1016.9 hPa | 0 mm | 0.45 m/s, ° | - | - |
| 1788080083 | 25.56° C | 52% | 1016.9 hPa | 0 mm | 0 m/s | - | - |
| 1788080023 | 25.56° C | 52% | 1020.9 hPa | 0 mm | 0 m/s | - | - |
| 1788079963 | 25.56° C | 53% | 1016.9 hPa | 0 mm | 0 m/s | - | - |
| 1788079843 | 25° C | 55% | 1016.9 hPa | 0 mm | 0 m/s | - | - |
| 1788079783 | 25° C | 58% | 1016.9 hPa | 0 mm | 0 m/s | - | - |
| 1788079723 | 24.44° C | 59% | 1016.9 hPa | 0 mm | 0 m/s | - | - |
| 1788079663 | 23.89° C | 57% | 1016.9 hPa | 0 mm | 0 m/s | - | - |
| 1788079603 | 24.44° C | 58% | 1016.9 hPa | 0 mm | 0 m/s | - | - |
| 1788079543 | 23.89° C | 57% | 1016.9 hPa | 0 mm | 0 m/s | - | - |
| 1788079483 | 24.44° C | 58% | 1020.9 hPa | 0 mm | 0.89 m/s, ° | - | - |
* Rain latest hour (hover to see other rain measurements)
** Current wind speed in m/s (hover to see current wind gust speed)